White Plains, CT

6:25 AM EDT on August 20, 2017 (GMT -0400)
Westchester County

Weather History for KHPN - May, 2014

Change the Weather History Date:

Monday, May 19, 2014

  Actual Average Record
Temperature  
Mean Temperature 56 °F -  
Max Temperature 69 °F 65 °F 89 °F (2017)
Min Temperature 43 °F 47 °F 37 °F (2002)
Degree Days  
Heating Degree Days 9    
Growing Degree Days 6 (Base 50)    
Moisture  
Dew Point 36 °F    
Average Humidity 48    
Maximum Humidity 83    
Minimum Humidity 26    
Precipitation  
Precipitation 0.03 in - - ()
Sea Level Pressure  
Sea Level Pressure 30.12 in    
Wind  
Wind Speed 9 mph (NW)    
Max Wind Speed 18 mph    
Max Gust Speed 28 mph    
Visibility 10 miles    
Events      
Averages and records for this station are not official NWS values.
T = Trace of Precipitation, MM = Missing Value Source: NWS Daily Summary

Daily Weather History Graph

Daily Weather History Graph

Search for Another Location

Airport or City:

Trip Planner

Search our weather history database for the weather conditions in past years. The results will help you decide how hot, cold, wet, or windy it might be!

Date:

Astronomy

May. 19, 2014 Rise Set
Actual Time 5:33 AM EDT 8:09 PM EDT
Civil Twilight 5:01 AM EDT 8:41 PM EDT
Nautical Twilight 4:21 AM EDT 9:21 PM EDT
Astronomical Twilight 3:37 AM EDT 10:06 PM EDT
Moon No Moon Rise 10:28 AM EDT (5/19)
Length of Visible Light 15h 40m
Length of Day
14h 36m
Waning Gibbous, 71% of the Moon is Illuminated
May 19
Waning Gibbous
May 21
Last Quarter
May 28
New
Jun 5
First Quarter
Jun 13
Full

Hourly Weather History & Observations

Time (EDT) Temp. Windchill Dew Point Humidity Pressure Visibility Wind Dir Wind Speed Gust Speed Precip Events Conditions
12:56 AM 50.0 °F - 30.9 °F 48% 30.14 in 10.0 mi NW 8.1 mph - N/A   Clear
1:56 AM 48.2 °F - 32.0 °F 54% 30.14 in 10.0 mi NW 6.9 mph - N/A   Clear
2:56 AM 45.0 °F 41.8 °F 30.9 °F 58% 30.15 in 10.0 mi NNW 5.8 mph - N/A   Clear
3:56 AM 45.0 °F 41.8 °F 30.0 °F 56% 30.16 in 10.0 mi NW 5.8 mph - N/A   Clear
4:56 AM 43.0 °F 38.8 °F 32.0 °F 65% 30.17 in 10.0 mi NW 6.9 mph - N/A   Clear
5:56 AM 43.0 °F 40.3 °F 33.1 °F 68% 30.19 in 10.0 mi NW 4.6 mph - N/A   Clear
6:56 AM 48.9 °F - 34.0 °F 56% 30.20 in 10.0 mi NNW 5.8 mph - N/A   Clear
7:56 AM 53.1 °F - 33.1 °F 47% 30.20 in 10.0 mi NW 8.1 mph - N/A   Clear
10:56 AM 61.0 °F - 36.0 °F 39% 30.17 in 10.0 mi WNW 8.1 mph - N/A   Partly Cloudy
11:56 AM 63.0 °F - 36.0 °F 37% 30.15 in 10.0 mi WNW 15.0 mph 20.7 mph N/A   Scattered Clouds
12:56 PM 66.0 °F - 37.0 °F 34% 30.12 in 10.0 mi WNW 13.8 mph 21.9 mph N/A   Mostly Cloudy
1:56 PM 66.9 °F - 35.1 °F 31% 30.10 in 10.0 mi NNW 16.1 mph 23.0 mph N/A   Scattered Clouds
2:56 PM 69.1 °F - 33.1 °F 26% 30.08 in 10.0 mi WNW 18.4 mph 26.5 mph N/A   Partly Cloudy
3:56 PM 66.9 °F - 34.0 °F 30% 30.07 in 10.0 mi NW 15.0 mph 26.5 mph N/A   Partly Cloudy
4:56 PM 68.0 °F - 36.0 °F 31% 30.06 in 10.0 mi NW 10.4 mph 19.6 mph N/A   Scattered Clouds
5:56 PM 69.1 °F - 33.1 °F 26% 30.05 in 10.0 mi NW 17.3 mph 27.6 mph N/A   Mostly Cloudy
6:56 PM 66.9 °F - 36.0 °F 32% 30.06 in 10.0 mi WNW 11.5 mph - N/A   Clear
7:56 PM 62.1 °F - 39.9 °F 44% 30.08 in 7.0 mi NW 10.4 mph - 0.01 in   Scattered Clouds
8:56 PM 54.0 °F - 48.9 °F 83% 30.10 in 10.0 mi West 4.6 mph - 0.02 in   Mostly Cloudy
9:56 PM 55.9 °F - 44.1 °F 64% 30.11 in 10.0 mi West 5.8 mph - N/A   Partly Cloudy
10:56 PM 55.0 °F - 44.1 °F 67% 30.10 in 10.0 mi WNW 6.9 mph - N/A   Mostly Cloudy
11:56 PM 53.1 °F - 43.0 °F 69% 30.10 in 10.0 mi WNW 4.6 mph - N/A   Clear